Regional Weather Roundup
Issued by NWS

Home | Current Version | Previous Version | Graphics & Text | Print | Product List | Glossary On
Versions: 1 2 3 4 5 6 7 8 9 10 11 12 13 14 15 16 17 18 19 20 21 22 23 24 25 26 27 28 29 30 31 32 33 34 35 36 37 38 39 40 41 42 43 44 45 46 47 48 49 50
000
ASUS44 KMEG 220910
RWRTN
TENNESSEE HOURLY STATE WEATHER ROUNDUP
NATIONAL WEATHER SERVICE MEMPHIS TN
300 AM CST SAT NOV 22 2014

TNZ002-004-019-021-049-052-054-088>092-221000-
WEST TENNESSEE

CITY           SKY/WX    TMP DP  RH WIND       PRES   REMARKS
MEMPHIS INTL   MOCLDY    54  46  74 S8        30.27F
NWS MEMPHIS      N/A    N/A N/A N/A MISG        N/A
JACKSON        MOCLDY    54  40  59 S6        30.30F
DYERSBURG      CLOUDY    52  36  54 SE8       30.28F
UNION CITY     CLOUDY    46  43  87 S8        30.26F
PARIS          MOCLDY    48  37  66 S8        30.30S
HUNTINGDON     CLOUDY    49  38  65 S8        30.30F
LEXINGTON      PTCLDY    50  39  66 CALM      30.31R
SAVANNAH       PTCLDY    52  37  58 SE6       30.32S
$$

TNZ008-025-027-028-033-062-065-066-221000-
NORTH MIDDLE TENNESSEE

CITY           SKY/WX    TMP DP  RH WIND       PRES   REMARKS
NASHVILLE      MOCLDY    47  33  58 S9        30.36S
CLARKSVILLE    CLOUDY    47  34  60 SE7       30.31F
SMYRNA         MOCLDY    42  32  68 SE7       30.37F
COOKEVILLE     CLEAR     39  21  48 S3        30.38S
CROSSVILLE     CLEAR     33  16  49 CALM      30.39S
$$

TNZ061-075-076-078-094-096-097-221000-
SOUTH MIDDLE TENNESSEE

CITY           SKY/WX    TMP DP  RH WIND       PRES   REMARKS
FAYETTEVILLE   MOCLDY    41  28  60 MISG      30.37S
TULLAHOMA      CLEAR     43  23  45 SE6       30.37F
WINCHESTER     CLEAR     41  27  56 E9        30.38F
MCMINNVILLE    CLEAR     32  28  86 CALM      30.38S
COLUMBIA       CLOUDY    48  36  61 CALM      30.33S
SHELBYVILLE    CLEAR     45  28  53 SE3       30.38S
$$

TNZ017-018-042-046-047-221000-
NORTHEAST TENNESSEE

CITY           SKY/WX    TMP DP  RH WIND       PRES   REMARKS
TRI CITIES     CLEAR     24  16  71 CALM      30.43F
ELIZABETHTON   SUNNY     27  14  59 NE5       30.43F WCI  21
$$

TNZ012-013-036-069-073-074-221000-
CENTRAL EAST TENNESSEE

CITY           SKY/WX    TMP DP  RH WIND       PRES   REMARKS
KNOXVILLE      PTCLDY    29  21  72 CALM      30.42S
OAK RIDGE      CLEAR     28  23  81 CALM      30.45S
GATLINBURG     SUNNY     23  19  86 CALM      30.42F
MORRISTOWN     SUNNY     30  16  55 NE3       30.42S
$$

TNZ083-085-099-221000-
SOUTHEAST TENNESSEE

CITY           SKY/WX    TMP DP  RH WIND       PRES   REMARKS
CHATTANOOGA    CLEAR     31  27  85 CALM      30.44S
$$

SKY/WX REPORTED AS FAIR MEANS FEW OR NO CLOUDS BELOW
12 THOUSAND FEET.




USA.gov is the U.S. government's official web portal to all federal, state and local government web resources and services.